Location: Champseau
(45.8333°N, 1.7667°E)
Time: 18:13:38
(UTC+00:00)

Cosmos 2322 - Pass Details

Date: 18 April 2021
Orbit: 843 x 852 km, 71.0° (Epoch: 12 May)

Event Time Altitude Azimuth Distance (km) Brightness Sun altitude
Rises 20:08:22 0° 329° (NNW) 3,411 8.1 -14.1°
Reaches altitude 10° 20:10:52 10° 325° (NW) 2,471 7.3 -14.5°
Maximum altitude 20:16:20 53° 251° (WSW) 1,034 4.4 -15.3°
Enters shadow 20:21:45 10° 176° (S) 2,440 5.7 -16.1°
